Theta_e
339 340 341 341 345 348 348 348 348 349 349 349 349 350 350 349 348 347 347 346 346 346 346 345 345 344 343 342 342 341 341 342 343 344 344 344 345 345 345 346 346 347 347 347 347 347 345 345 345 345 344 345 345 346 346 345 345 345 345 346 345 344 344 343 343 342 342 342 343 344 344 343 343 343 343 345 344 341 340 338 338 336 337 338 340
338 340 339 342 346 348 348 348 349 349 349 349 349 349 349 349 348 348 347 346 345 345 345 344 342 342 341 341 340 341 342 341 342 342 342 343 342 343 343 344 345 345 345 345 344 345 346 346 345 345 345 345 345 345 345 345 346 344 344 344 344 343 343 342 342 341 341 340 341 342 340 341 342 342 342 342 342 341 340 338 336 335 335 336 336
340 337 336 341 344 350 348 348 349 349 349 349 349 349 349 348 348 347 346 345 344 343 342 343 342 342 341 341 340 340 340 340 341 340 340 341 341 341 341 342 343 343 344 344 344 345 345 344 344 345 345 345 344 344 344 345 344 343 344 344 343 342 342 341 340 340 339 339 339 339 339 339 339 339 340 342 341 339 338 337 336 336 335 337 335
338 337 337 341 343 347 349 348 347 348 348 348 348 348 348 348 347 347 347 345 344 343 342 342 341 341 341 341 341 341 341 340 340 341 340 340 340 341 341 341 342 342 343 345 345 344 343 344 344 345 344 343 343 344 344 343 343 343 343 342 342 341 340 339 339 338 338 337 337 336 337 338 337 337 337 338 338 337 337 336 335 335 335 334 333
336 337 339 341 348 347 349 349 348 347 347 348 348 348 348 348 347 346 345 344 343 342 342 342 342 342 343 343 342 342 342 342 342 341 341 341 340 340 340 340 341 342 342 344 344 343 343 345 345 345 344 344 343 343 343 343 343 343 342 341 340 340 339 338 338 337 336 335 335 335 334 335 337 337 336 335 335 333 334 332 333 333 331 331 332
337 338 338 341 347 348 347 348 347 348 348 348 348 348 348 347 346 344 344 345 344 344 340 339 339 342 342 340 338 339 341 341 340 340 341 341 340 340 340 340 340 340 343 343 344 343 343 343 344 344 343 342 342 342 342 343 342 341 340 339 339 339 338 338 337 336 335 334 334 334 333 334 332 334 337 336 335 334 332 331 331 331 331 332 332
337 337 338 340 342 346 345 347 347 347 347 348 348 347 347 346 345 344 342 345 343 340 336 340 343 341 339 341 342 340 340 340 340 340 340 341 339 339 340 340 340 340 342 343 342 342 343 342 343 342 343 342 342 341 342 341 340 340 340 339 339 338 338 337 336 335 334 334 333 333 332 333 333 333 334 335 335 334 333 333 332 331 331 331 333
337 337 338 340 342 343 345 348 347 347 348 348 348 347 346 346 345 344 343 343 342 338 337 339 336 336 338 340 340 341 339 340 340 340 339 340 340 340 340 339 339 339 341 342 342 342 342 342 342 342 342 342 341 342 341 341 340 339 339 338 338 337 337 335 334 333 332 333 335 333 332 332 333 333 333 333 334 334 333 333 332 331 330 331 332
337 338 339 340 344 342 344 346 347 347 347 347 347 346 345 345 344 344 343 342 341 341 341 341 340 340 341 341 341 338 340 340 340 339 339 339 338 337 337 335 337 338 339 340 341 341 342 341 342 341 342 342 341 340 340 340 338 338 338 337 337 337 336 335 332 330 330 331 332 333 334 332 332 331 332 331 331 331 332 331 331 330 329 334 332
336 337 339 341 345 341 344 345 347 347 347 347 346 345 345 344 343 342 342 341 339 337 341 342 341 340 340 340 338 335 334 336 335 338 339 338 338 337 337 338 338 338 337 339 340 340 341 341 341 341 341 341 340 340 340 339 338 338 338 337 336 336 335 333 331 330 331 331 331 332 333 334 333 332 331 332 331 330 328 330 330 333 332 331 332
335 337 339 342 346 342 346 346 346 346 346 346 345 344 343 342 342 341 340 340 337 335 341 340 340 340 343 344 342 339 337 339 339 339 339 339 338 338 339 339 338 338 339 340 340 341 341 341 341 341 341 340 339 339 339 339 338 338 337 336 336 336 334 332 330 331 331 331 330 330 330 331 332 332 331 331 331 330 332 331 330 329 329 329 330
336 337 339 343 345 341 345 345 346 346 346 345 344 342 342 341 341 340 339 339 337 338 339 338 337 340 342 343 343 340 337 336 339 339 338 339 339 339 339 338 337 337 338 339 340 340 340 340 340 340 339 338 339 339 339 339 338 337 337 336 336 334 332 330 330 331 332 331 331 331 331 329 328 327 330 331 330 330 330 329 329 329 328 328 327
335 337 338 340 344 340 343 345 344 345 345 344 342 341 340 339 340 339 338 339 338 337 337 337 339 342 342 341 341 341 339 338 338 338 337 337 336 336 337 338 337 338 338 338 338 339 339 340 340 339 338 338 338 339 338 339 338 337 336 336 335 333 331 329 331 332 331 332 331 331 331 332 331 332 330 330 330 329 329 328 327 326 328 328 328
334 336 337 340 344 343 339 341 343 345 345 343 341 340 339 339 339 339 338 338 337 337 336 335 340 343 343 342 342 342 342 339 337 336 336 337 337 336 336 337 337 337 338 338 338 339 339 340 339 339 337 337 337 337 337 337 337 336 336 335 334 332 328 329 330 332 332 331 331 331 330 330 331 330 330 330 329 329 329 328 326 326 327 328 328
334 335 336 338 341 343 340 338 341 341 342 342 341 339 338 338 338 338 337 338 338 337 336 335 338 341 342 343 342 341 341 340 338 336 335 335 335 337 337 337 337 337 337 338 338 338 338 339 339 338 337 336 335 335 335 336 336 336 335 333 331 329 326 330 331 331 331 330 330 330 330 330 331 328 328 328 330 330 329 329 328 327 327 327 327
335 335 335 335 338 341 343 341 336 336 338 339 339 339 339 339 341 339 340 339 338 338 336 336 338 342 342 341 341 340 339 339 339 338 335 335 336 336 336 336 336 337 337 338 337 337 338 338 337 337 336 335 335 334 334 334 334 334 333 332 330 328 324 325 331 331 330 330 330 330 330 330 332 330 328 328 329 328 328 327 328 327 326 326 327
334 334 334 333 334 337 338 339 336 331 331 332 335 336 337 340 342 340 340 341 341 341 342 340 342 342 342 342 341 341 340 338 338 337 335 334 335 335 335 336 336 336 336 337 336 337 337 337 337 336 336 336 335 335 334 333 332 331 330 330 329 327 323 322 330 330 330 330 328 329 330 329 331 333 328 326 330 330 327 327 326 326 326 326 325
335 335 333 333 332 334 334 335 336 337 337 334 331 335 337 339 339 339 340 341 341 341 341 341 341 341 340 340 340 340 341 340 340 339 338 337 336 336 335 335 336 336 336 336 337 336 336 336 336 335 335 335 335 334 333 332 331 330 328 327 326 324 322 322 330 329 329 329 328 328 327 328 332 334 328 330 330 329 327 327 327 326 326 326 326
335 335 334 333 331 332 333 333 333 334 335 336 337 338 332 335 337 337 338 339 339 338 338 337 337 338 336 335 334 333 333 335 336 337 337 335 335 335 337 337 335 336 336 336 335 336 336 335 335 334 334 333 334 333 333 332 330 329 328 325 321 319 317 324 328 328 328 328 328 328 327 329 332 332 332 329 329 328 326 327 326 326 325 326 326
335 335 334 334 332 331 331 332 332 332 332 333 335 337 332 331 333 334 335 336 335 335 334 332 329 329 329 328 327 329 328 329 326 333 330 333 331 332 334 335 334 334 334 335 335 335 335 335 335 334 331 330 329 328 328 329 329 327 325 323 319 318 327 327 327 328 327 327 328 328 326 330 332 330 331 329 328 331 325 326 326 326 327 326 327
332 334 333 333 333 331 330 331 331 331 330 331 333 334 333 330 331 329 330 331 332 331 329 323 322 321 323 321 323 329 329 331 332 332 323 329 322 325 332 335 334 334 334 334 334 334 334 335 335 333 331 327 321 320 320 324 326 325 323 319 318 328 326 326 327 327 328 327 327 328 326 329 332 332 331 332 331 331 329 326 327 327 327 327 327
328 331 333 334 332 332 331 330 330 329 329 329 331 333 334 331 335 334 333 331 326 324 328 331 327 328 320 327 330 329 327 329 330 327 328 327 326 323 327 332 334 332 333 334 334 334 334 333 332 331 329 324 317 322 321 317 318 320 318 316 327 327 327 324 325 326 326 327 326 326 325 329 331 332 333 333 332 333 332 328 328 328 329 329 329
325 329 330 332 333 332 332 330 330 329 329 328 329 332 333 332 332 332 330 326 329 328 329 327 327 325 325 326 325 326 325 326 325 323 322 318 323 321 325 327 327 326 328 328 330 331 331 330 327 327 325 319 320 321 321 322 323 316 317 325 326 326 326 325 326 326 326 326 326 323 325 329 331 331 333 334 334 334 332 329 330 330 330 331 331
323 326 327 331 333 332 332 332 330 330 330 328 328 330 332 332 332 332 331 328 328 327 326 326 326 324 324 324 324 324 324 324 322 322 322 324 323 319 319 319 320 320 321 324 323 324 323 322 320 318 317 317 320 319 321 324 325 325 326 326 326 324 325 324 325 326 326 325 325 321 324 328 330 331 333 333 334 332 331 332 333 332 333 332 332
323 326 327 328 331 332 332 331 331 330 330 329 327 328 330 331 331 330 330 328 326 324 324 325 324 324 323 324 322 321 322 323 323 321 322 322 323 324 324 323 320 322 320 323 322 322 320 319 318 316 317 318 320 319 322 323 325 325 325 325 324 324 324 324 324 325 326 326 325 319 322 326 331 332 333 334 334 332 331 332 333 333 333 333 334
322 323 324 327 330 331 331 331 331 330 330 330 328 327 328 329 329 329 329 329 327 325 324 324 324 324 324 323 322 323 322 322 321 323 322 322 322 322 320 320 319 322 320 321 321 320 320 319 317 317 317 317 318 319 318 318 322 325 325 324 324 324 324 323 323 324 325 325 325 318 321 324 329 332 333 333 333 333 332 332 333 333 333 334 334
321 321 323 325 328 330 331 331 330 330 330 331 330 328 327 329 329 329 329 328 328 326 325 325 324 324 324 324 327 324 324 323 323 321 322 321 322 320 321 320 321 322 321 321 321 319 319 319 318 318 317 317 320 322 321 321 319 322 324 324 323 323 323 323 322 322 323 323 320 316 319 322 326 329 331 332 333 333 333 333 332 334 334 334 334
322 321 322 324 325 327 329 330 330 330 330 331 330 328 328 327 327 327 328 327 327 327 327 326 325 324 324 326 326 325 324 323 323 322 323 319 322 321 320 321 321 321 322 321 321 320 319 318 318 319 318 319 320 322 321 321 321 319 322 324 323 322 322 321 320 321 321 322 323 319 317 320 322 326 330 332 333 332 333 332 333 334 334 335 334
323 322 323 323 325 326 327 327 329 329 330 331 329 329 329 328 327 326 327 325 327 328 327 326 325 325 324 325 326 327 325 325 324 323 321 324 322 321 321 321 320 321 321 322 320 320 320 320 320 321 320 321 321 322 321 322 321 321 321 324 322 322 322 322 322 322 322 322 322 320 316 318 321 324 327 329 331 332 333 333 333 334 335 335 334
326 325 323 324 325 326 326 326 328 328 329 330 329 328 328 328 328 327 327 324 326 327 326 326 327 325 325 324 325 328 327 327 326 324 325 326 323 321 322 322 322 322 320 323 322 320 323 322 322 322 322 324 323 322 319 321 323 323 321 321 321 320 321 321 321 322 322 321 321 321 315 316 318 321 324 326 329 331 332 333 333 334 334 335 335
330 327 326 325 325 326 325 325 326 327 329 328 328 327 327 327 328 328 328 326 326 326 327 327 327 326 326 324 325 326 327 327 326 326 325 325 324 322 323 321 322 323 321 323 321 322 322 322 323 323 322 322 322 322 319 320 322 323 323 320 321 321 321 321 321 321 320 321 321 321 321 315 316 318 321 324 326 328 329 331 332 332 333 334 334
331 330 329 328 327 326 326 326 326 327 327 327 327 325 325 326 327 327 327 327 327 326 326 326 325 327 326 325 326 326 326 326 326 325 325 324 324 324 323 322 324 323 323 323 323 321 322 322 321 320 320 319 320 320 319 319 322 322 321 321 321 320 321 321 320 320 320 321 321 321 321 320 316 316 318 320 323 325 326 328 329 330 332 334 334
332 332 331 329 328 328 327 327 328 326 327 326 326 325 325 325 325 326 326 327 326 325 326 326 326 326 325 326 326 326 326 326 325 325 323 324 323 323 323 322 323 322 322 322 323 322 321 321 320 319 318 318 319 322 322 320 319 320 320 320 320 320 321 321 320 320 320 320 320 320 321 320 320 315 315 316 319 321 323 324 326 328 329 330 331
331 332 332 330 330 330 329 328 328 327 326 327 327 326 325 325 325 325 325 325 325 326 326 327 326 326 326 326 326 326 325 325 325 323 323 322 321 321 323 323 322 321 322 321 321 321 321 322 322 321 319 320 320 321 320 320 321 320 320 321 321 321 322 320 320 320 320 319 320 320 319 320 320 320 320 316 316 317 319 322 324 325 326 327 328
330 331 330 331 331 331 330 329 327 328 326 327 327 327 327 326 326 326 325 326 326 326 326 326 326 326 326 326 326 326 325 325 324 324 322 323 323 324 322 324 323 321 320 320 322 322 321 321 321 321 321 320 320 320 319 319 319 319 320 320 321 321 321 319 319 319 319 319 319 319 319 319 319 319 320 319 313 314 316 319 321 322 323 325 326
330 330 330 331 331 331 331 331 329 329 327 328 328 328 328 327 327 324 327 326 326 326 326 326 327 326 326 326 326 326 326 324 323 323 324 323 324 325 327 326 324 323 323 322 321 323 321 320 320 320 320 320 320 321 321 320 319 318 320 320 320 319 319 320 319 320 319 318 319 319 318 318 318 318 314 318 318 316 314 315 318 319 320 321 323
330 330 328 328 329 330 329 331 330 329 329 328 329 329 329 328 327 327 327 327 326 327 327 326 326 325 326 326 326 326 325 325 324 324 325 324 324 325 325 326 324 325 326 324 323 324 323 322 322 320 320 320 320 320 321 320 319 319 320 320 320 319 319 320 320 319 318 318 319 318 318 318 317 312 318 317 318 318 314 313 314 315 315 317 320
328 328 329 328 328 329 329 330 332 331 331 329 329 329 329 329 328 328 327 327 327 328 328 326 326 326 325 326 326 326 326 326 326 325 325 326 326 325 325 323 323 325 326 323 323 322 321 322 322 322 320 319 320 320 320 321 319 319 319 320 320 320 321 320 320 316 317 318 319 319 318 317 317 317 317 317 317 317 317 315 312 312 311 314 318
326 326 327 327 328 328 328 328 329 331 331 330 329 329 329 329 329 328 327 327 327 328 328 327 327 327 326 327 327 327 326 327 326 326 325 325 325 326 325 324 323 325 323 322 321 320 320 320 320 321 318 320 321 321 320 319 319 318 317 318 319 320 321 320 318 318 318 318 317 316 317 317 317 318 317 317 317 317 316 316 316 317 317 312 315
324 325 325 325 326 327 327 327 328 330 331 330 329 328 328 327 326 326 326 326 327 326 327 328 328 328 328 328 327 327 327 326 326 326 326 325 326 326 327 328 326 325 324 323 323 321 321 320 320 319 320 319 318 320 320 318 316 316 315 318 321 321 320 320 317 318 318 318 318 317 317 317 318 317 318 317 316 316 316 316 314 316 316 314 312
322 323 323 324 325 326 325 325 326 328 329 328 327 328 326 326 327 326 326 327 327 328 328 328 328 329 329 328 328 327 327 326 326 327 326 325 327 326 326 326 324 324 324 324 324 324 322 322 321 319 319 320 322 321 318 314 315 318 320 320 321 321 319 317 316 318 320 318 317 318 317 317 317 317 317 316 316 316 316 316 315 315 315 315 314
320 321 322 323 324 325 325 326 326 326 328 330 329 329 329 329 328 327 327 327 327 326 327 328 329 330 330 329 329 330 329 328 326 327 328 327 326 326 327 327 326 325 324 323 323 319 320 320 321 322 316 320 321 319 316 316 315 314 314 315 317 320 320 316 316 319 319 319 317 317 317 315 316 316 316 314 315 315 315 314 314 314 314 314 314
322 321 322 323 323 323 325 326 326 326 327 329 330 329 330 331 331 330 329 327 328 330 330 329 331 331 331 331 331 331 331 330 330 328 328 328 328 329 328 328 327 327 325 323 321 321 320 321 320 320 318 316 318 317 317 318 317 317 316 314 312 311 315 318 314 317 318 318 317 317 316 316 315 315 313 313 314 314 314 313 313 313 313 313 313
321 321 321 321 322 322 324 325 325 325 326 327 326 330 330 331 331 329 330 329 324 321 324 323 327 328 329 331 332 332 332 331 331 328 327 327 327 328 328 326 326 324 325 324 321 321 321 320 318 317 318 317 317 319 316 317 317 317 312 311 311 310 306 310 312 315 317 317 316 316 315 314 314 314 313 312 312 312 312 313 312 312 312 311 311
321 321 321 321 322 322 323 324 324 324 326 325 326 328 326 325 324 321 323 321 319 321 322 322 325 325 328 328 330 331 331 331 330 329 328 328 328 328 326 325 325 323 321 322 322 323 323 322 320 319 317 318 316 318 316 316 317 319 317 311 309 306 307 310 310 311 315 313 314 316 315 314 313 313 313 311 312 311 311 311 311 312 311 310 311
319 321 322 322 323 323 323 323 324 324 325 325 326 326 326 326 323 323 320 321 322 319 321 322 321 322 326 329 330 331 331 332 331 329 329 327 328 328 327 326 325 323 322 323 324 323 323 321 320 321 318 318 318 317 316 316 316 318 318 317 314 309 308 309 308 305 312 312 314 314 312 312 313 311 309 309 309 310 310 310 311 310 309 309 310
318 321 322 322 323 323 323 323 323 324 324 324 325 324 326 326 325 326 325 325 325 324 325 326 325 327 327 325 327 326 328 329 330 330 329 325 326 328 328 327 326 325 324 324 321 322 322 320 318 319 319 318 317 315 314 314 314 315 315 314 313 311 311 308 304 305 301 308 311 310 309 312 310 307 307 307 308 308 308 309 310 308 307 308 309
317 319 320 321 321 322 322 322 323 322 324 324 324 324 325 325 325 325 326 326 326 326 324 326 327 324 322 323 324 325 326 327 327 327 327 326 326 327 326 325 323 322 320 322 321 320 319 317 317 317 317 317 316 315 313 312 312 311 313 313 312 311 310 311 310 305 302 299 300 305 309 308 303 303 304 306 307 307 307 307 307 305 306 308 309
315 317 318 320 321 322 322 322 323 322 323 323 323 323 324 325 325 325 324 325 326 325 321 319 318 318 320 317 319 322 323 324 325 325 324 325 323 323 322 322 321 321 321 321 320 319 318 317 317 316 315 314 314 313 313 311 311 310 311 310 310 308 307 308 306 303 299 298 297 299 298 301 300 300 303 304 304 306 305 304 303 304 306 308 309
312 315 316 318 319 321 320 320 321 322 322 322 322 323 324 323 325 324 324 323 322 317 316 314 316 315 320 315 317 320 321 320 321 322 322 323 322 321 320 320 319 319 317 319 317 316 316 316 315 315 314 313 312 312 312 312 311 310 310 309 306 305 304 304 303 300 301 301 297 296 297 294 292 296 298 301 303 301 301 302 303 305 306 307 308
308 311 313 315 317 318 319 319 321 322 321 322 322 322 323 324 324 324 324 323 320 315 315 313 313 314 316 314 316 318 319 319 318 318 321 320 319 318 318 316 316 314 314 315 313 313 312 311 311 311 311 311 311 311 309 309 309 307 306 306 305 304 302 300 299 298 297 296 295 294 294 294 292 293 298 302 297 299 300 302 303 304 306 306 304
Wind_Speed
3 3 2 3 5 7 7 8 9 9 10 11 12 13 14 14 13 14 15 15 15 15 15 15 15 15 15 14 14 14 13 11 12 13 14 14 13 14 15 16 17 18 18 19 18 17 16 17 19 18 18 18 18 18 19 19 19 19 20 20 20 20 19 19 19 19 19 20 20 19 19 18 17 16 18 17 17 16 13 15 12 10 10 12 16
6 3 1 2 4 6 8 9 9 10 11 12 12 13 14 14 14 14 14 15 15 15 14 14 13 13 14 14 14 15 14 14 14 13 13 13 13 13 13 14 15 16 17 17 16 16 18 18 18 18 18 18 18 18 18 19 19 19 19 19 19 19 19 19 18 18 18 18 18 16 17 17 17 17 16 16 16 16 13 14 14 9 9 14 15
4 2 1 2 2 6 8 9 10 10 11 12 13 13 13 13 14 14 15 15 15 14 13 13 13 14 14 13 15 15 15 15 15 14 14 14 14 13 13 14 14 15 16 16 16 17 17 17 17 17 18 18 18 18 19 19 18 19 18 18 18 17 17 17 16 16 16 15 14 12 12 15 16 16 15 16 16 16 13 14 14 12 10 14 13
5 1 1 2 2 6 8 9 10 10 10 12 13 13 13 13 13 15 15 15 15 14 12 13 13 14 14 15 15 14 14 14 14 14 14 14 15 13 12 14 15 15 16 17 17 17 15 16 17 17 17 17 17 17 17 17 17 17 17 17 16 16 16 16 15 15 14 13 12 8 7 8 11 14 14 14 15 15 12 14 14 14 14 14 14
4 2 1 3 5 7 6 7 10 10 10 12 12 12 12 13 13 14 14 14 14 13 13 13 13 14 15 15 15 14 14 14 14 15 15 14 14 14 14 12 14 16 16 17 17 16 15 17 17 17 17 16 16 16 16 16 17 16 16 16 16 16 15 15 14 14 13 12 10 8 8 9 8 13 14 14 14 12 11 12 13 12 12 13 14
3 2 2 4 6 8 7 8 10 11 11 11 11 12 12 12 13 12 13 15 15 15 14 11 12 14 13 13 13 14 15 14 14 14 14 14 14 14 14 13 13 15 17 17 16 15 15 16 17 17 16 15 15 16 16 16 16 16 16 15 15 15 15 14 14 13 11 9 8 7 8 9 8 8 15 14 14 12 12 13 13 12 12 13 13
4 2 3 4 4 5 8 9 10 10 11 11 11 12 12 11 12 12 13 15 14 13 11 13 15 14 13 14 15 14 13 14 14 14 14 13 14 14 13 13 13 14 16 16 15 15 15 15 15 15 16 16 16 15 15 16 15 15 15 15 14 14 14 13 12 12 10 6 7 7 7 8 8 7 14 14 14 13 13 14 13 12 12 12 13
3 2 2 4 3 5 8 8 9 10 11 11 12 11 12 12 11 12 13 13 13 12 12 13 11 11 13 13 13 14 13 13 13 13 13 14 15 14 13 12 12 15 16 15 15 15 15 15 15 15 16 15 15 15 15 14 14 14 14 14 14 13 13 12 11 10 9 6 5 6 6 7 7 7 12 13 14 14 13 13 12 12 12 10 6
3 2 3 3 3 7 8 8 9 10 12 12 12 11 11 12 11 11 11 11 11 11 13 13 14 12 12 13 13 12 13 13 13 13 14 13 13 13 13 12 12 13 14 15 15 15 14 14 15 15 15 15 15 14 13 13 13 13 13 13 12 12 11 10 9 7 5 5 5 5 6 7 6 7 11 12 13 13 14 11 9 11 12 9 9
3 3 3 3 3 7 7 7 8 10 12 13 13 12 12 11 10 11 12 12 10 9 13 14 12 12 11 11 13 12 11 12 12 14 13 12 13 12 13 13 12 12 13 14 15 14 15 15 14 14 14 14 14 13 13 12 12 12 12 12 11 11 10 9 7 6 5 5 6 6 6 7 6 6 11 10 12 13 11 9 9 8 7 9 13
3 3 3 3 5 8 7 8 9 9 12 11 13 12 12 10 8 9 11 12 11 8 13 11 11 11 13 14 13 13 12 12 12 13 13 13 12 13 14 12 11 11 13 14 15 14 14 14 14 14 14 13 13 12 12 11 11 11 11 10 10 10 9 8 6 5 5 5 6 6 6 7 4 5 9 10 12 11 6 9 9 10 11 12 13
4 3 3 4 7 8 8 9 10 12 11 12 13 12 11 9 8 9 11 12 11 9 11 11 10 11 12 13 12 12 11 12 12 12 12 13 13 13 13 12 11 11 12 13 13 13 14 14 14 14 13 12 12 11 11 11 10 10 10 9 9 9 8 7 4 4 4 5 6 5 6 6 6 6 7 11 10 11 12 12 12 11 10 10 11
5 4 3 3 5 7 8 8 9 11 11 12 12 11 10 8 8 8 9 10 10 9 10 10 11 12 11 12 11 11 11 12 12 12 12 11 12 12 12 13 12 11 11 11 12 12 13 14 14 13 12 12 11 11 10 10 9 9 8 8 8 8 7 6 3 4 4 5 5 5 6 6 6 9 11 10 10 10 11 11 11 10 11 10 10
6 4 3 4 4 6 8 7 8 9 8 11 11 10 9 9 8 8 8 9 10 10 8 8 12 12 11 11 11 11 10 12 12 11 11 12 11 11 11 11 11 11 11 11 11 12 12 13 13 13 12 12 11 10 10 9 8 8 7 8 8 7 6 4 4 4 4 5 5 5 5 5 7 10 9 9 9 11 10 10 10 10 10 10 11
7 6 4 4 5 5 8 8 8 8 8 9 9 9 10 9 9 8 7 10 10 10 9 7 10 10 11 12 12 12 12 12 13 11 9 10 11 11 11 11 11 11 10 10 10 10 11 12 12 12 12 12 12 11 10 9 8 7 7 7 7 6 5 3 3 3 3 4 4 4 5 5 11 7 8 9 11 10 9 10 10 9 10 10 10
7 7 6 5 4 4 6 7 7 7 8 9 9 8 8 7 7 9 8 10 10 10 7 9 10 12 12 11 11 11 11 11 12 11 10 9 10 10 11 11 10 10 10 10 10 10 10 11 11 11 11 12 11 11 11 11 9 8 8 7 6 6 6 3 2 3 3 3 4 4 4 6 13 13 11 10 8 8 9 9 9 9 9 9 10
7 7 7 5 5 5 5 5 6 9 8 8 8 8 7 8 10 11 11 12 12 11 10 10 12 12 13 13 13 11 9 11 11 11 11 10 9 9 9 9 9 9 9 10 10 10 10 10 10 11 11 11 11 11 11 11 11 9 8 7 6 6 6 5 2 3 3 3 2 3 4 5 8 11 9 2 12 10 8 8 7 8 9 9 9
7 7 7 6 5 5 5 5 5 5 5 6 7 7 8 9 10 10 9 10 10 10 10 10 10 10 10 10 10 11 11 11 12 11 11 10 9 9 9 8 8 9 9 9 10 10 10 10 10 10 11 11 11 11 11 11 11 10 9 8 7 6 6 4 3 2 3 3 3 3 3 6 11 12 7 12 10 8 7 6 6 7 8 8 8
7 7 7 5 5 5 5 5 5 5 5 4 4 6 9 9 9 9 9 8 8 9 8 9 9 8 9 9 9 10 10 9 9 10 9 9 9 8 8 7 8 8 8 8 8 9 10 10 10 11 11 11 11 11 10 10 10 9 8 7 6 5 4 3 2 3 3 3 3 3 4 8 11 16 15 9 8 6 5 3 4 6 6 7 10
7 7 6 5 4 5 5 5 5 5 4 4 5 5 7 9 9 9 8 7 8 8 8 8 8 9 9 9 9 9 8 7 9 8 9 9 8 7 8 7 7 7 7 7 8 8 9 9 10 11 11 10 9 10 10 9 9 8 7 6 6 4 3 2 3 3 3 3 3 3 5 10 11 11 12 9 5 11 2 2 4 5 6 4 9
7 8 8 6 5 5 6 6 6 6 6 5 5 5 6 9 7 8 8 7 7 8 8 8 8 7 8 8 7 6 5 5 5 5 7 6 7 8 8 8 8 8 7 7 7 7 7 10 11 10 9 9 7 7 8 8 8 8 6 6 5 4 2 2 2 2 2 2 3 3 7 10 11 12 11 12 10 9 5 3 4 6 6 6 7
9 9 8 7 6 6 6 6 6 6 6 5 5 5 5 5 7 5 4 5 6 6 5 4 4 4 6 5 4 4 4 4 4 5 4 4 6 7 7 8 9 9 10 11 10 10 10 11 10 9 8 7 7 4 5 6 7 7 4 4 3 3 2 2 2 2 3 2 3 4 8 9 11 12 12 12 12 13 10 5 6 8 9 9 9
8 9 9 10 8 6 6 6 6 6 5 5 5 5 6 4 6 6 4 4 5 5 4 4 3 4 4 4 4 4 4 4 3 4 4 6 6 7 8 9 9 9 8 8 8 8 8 8 7 6 6 6 4 4 4 3 3 5 4 4 2 3 3 3 2 2 2 3 3 4 7 9 10 12 12 14 15 14 11 4 8 10 11 11 13
10 11 11 10 9 8 9 7 7 6 5 5 5 5 5 5 5 5 5 4 3 3 4 4 4 3 3 3 3 4 4 3 5 6 5 3 3 5 6 6 6 7 6 4 6 7 6 6 6 6 5 4 3 3 3 2 2 2 2 2 2 2 3 3 2 2 3 2 3 6 7 9 11 12 12 14 14 15 15 15 13 13 14 15 13
7 7 7 9 11 10 9 8 7 7 6 5 6 5 5 5 5 5 4 4 3 3 3 3 3 4 3 3 3 3 3 3 3 2 2 2 2 1 2 2 2 3 4 3 3 3 4 4 4 4 3 3 4 4 3 3 2 2 2 2 2 2 2 3 3 3 3 3 3 6 7 9 11 12 13 14 15 15 15 15 17 18 15 15 16
5 8 10 9 10 10 9 8 8 7 7 6 5 5 5 6 5 5 4 4 3 3 3 3 3 3 3 3 3 3 3 2 2 2 2 2 1 1 1 1 2 2 2 2 2 2 2 2 3 3 3 2 2 2 2 2 3 3 2 2 2 2 2 2 2 3 3 3 4 6 7 8 10 12 13 14 15 15 15 17 16 16 18 18 17
9 8 9 9 10 11 10 9 8 8 8 6 5 4 5 5 5 5 5 4 4 4 3 3 3 3 3 4 4 3 2 2 2 2 2 2 2 1 1 0 1 1 1 1 2 1 1 1 1 1 2 2 2 1 1 1 1 2 2 2 2 3 3 3 2 3 3 3 4 7 7 9 10 12 13 14 15 16 16 16 17 17 17 19 19
6 8 8 8 9 12 11 9 9 8 8 7 6 5 5 5 5 4 5 5 5 4 4 4 4 4 3 2 2 3 3 2 1 1 1 1 1 1 1 1 1 1 1 1 0 1 0 0 1 2 2 1 2 2 1 1 1 1 3 2 2 2 3 3 3 3 3 3 4 7 7 8 9 11 13 14 16 16 17 17 17 18 19 18 19
7 8 8 8 9 9 11 11 10 10 8 8 7 6 5 5 5 5 6 5 5 5 5 4 4 3 4 3 3 3 2 2 2 2 1 1 1 1 1 1 1 1 1 1 1 1 1 1 1 2 1 2 2 2 3 3 2 1 2 4 3 3 3 3 3 4 3 3 4 6 9 8 10 11 12 14 15 16 17 17 17 18 19 19 18
9 7 7 9 8 8 11 11 11 10 8 8 7 6 6 6 6 6 6 5 6 5 5 4 4 4 4 4 4 2 3 2 2 1 2 2 1 1 1 1 2 1 2 2 2 2 1 1 1 2 2 2 2 2 2 4 4 3 2 3 3 3 3 3 4 4 4 4 4 5 9 8 9 11 12 13 15 16 16 17 17 18 18 19 19
10 9 7 8 8 9 10 10 10 9 8 9 8 7 6 7 7 6 6 6 5 4 5 4 4 4 4 4 4 3 2 2 2 2 2 1 1 1 2 1 2 1 2 2 1 2 1 1 1 1 1 2 3 1 1 3 3 4 2 2 3 3 3 3 3 3 4 4 4 5 6 9 8 10 11 13 14 15 15 16 17 18 18 19 20
10 10 7 6 7 11 10 10 10 9 9 9 7 8 7 7 7 6 7 6 6 5 5 5 5 5 4 4 4 4 3 2 2 2 2 2 2 1 1 2 2 1 1 2 2 2 2 2 2 2 2 2 3 2 1 2 3 3 3 4 3 3 3 3 4 4 4 4 4 5 5 6 8 7 9 12 13 14 14 15 16 16 17 18 19
8 10 9 9 9 10 11 12 11 10 12 10 8 7 6 6 7 7 6 7 7 6 5 6 5 5 4 5 5 5 4 3 3 3 3 2 1 2 2 2 2 2 2 2 2 2 2 2 2 2 1 2 2 4 1 2 3 3 3 4 3 4 4 3 4 4 5 4 5 5 5 5 6 8 8 8 11 12 13 14 14 15 15 16 17
8 7 8 10 8 7 7 7 10 10 12 10 8 7 8 7 6 6 6 7 7 7 7 5 5 4 5 5 5 5 4 4 3 3 3 2 2 2 3 3 2 3 2 2 2 2 2 2 2 1 2 1 2 3 3 4 3 2 3 3 3 4 4 4 4 4 4 5 5 5 5 5 5 5 6 8 7 8 11 12 12 13 14 15 15
8 9 11 11 10 9 7 7 9 10 9 10 10 8 8 8 7 7 7 7 7 7 6 5 6 4 4 5 6 5 5 4 4 4 3 4 4 4 3 3 2 3 2 2 2 2 2 2 1 2 2 2 2 3 3 4 4 5 5 3 4 4 3 5 4 4 4 4 4 4 4 4 4 5 5 5 7 7 7 10 11 12 13 14 15
13 11 10 9 11 11 9 9 10 11 11 10 10 9 9 8 6 6 6 7 6 6 6 6 5 4 4 4 5 5 4 5 4 4 4 3 3 3 5 4 4 2 2 2 2 2 2 2 2 2 2 3 2 3 2 3 2 5 4 4 4 4 5 5 5 4 3 4 4 4 4 4 4 4 5 4 5 7 8 8 10 11 12 13 14
14 11 11 11 11 11 10 10 11 11 11 10 9 10 9 9 8 7 7 7 7 7 6 5 5 5 4 4 4 5 5 5 5 5 4 4 4 4 4 5 5 4 3 2 2 2 2 2 2 2 2 3 2 5 5 1 3 4 4 5 4 4 5 5 5 3 3 3 4 4 4 4 4 5 3 4 4 5 8 9 9 10 10 12 13
11 12 12 13 13 12 11 11 10 10 10 10 10 10 9 8 7 7 7 7 8 5 5 5 6 5 5 5 5 5 4 5 5 5 5 5 5 5 4 3 5 4 4 3 4 1 2 2 3 1 2 2 3 4 5 4 3 4 5 5 5 4 5 4 3 2 2 4 3 3 4 4 4 4 4 4 4 4 5 7 9 8 9 9 13
10 11 11 11 10 10 9 10 11 11 9 10 9 9 8 7 6 6 6 7 6 5 5 5 6 5 6 5 5 4 5 5 5 5 5 4 4 3 3 5 3 3 3 4 3 2 2 2 3 2 1 3 3 3 4 4 4 4 5 5 5 6 5 4 2 2 2 2 3 4 3 3 4 3 4 4 4 5 5 5 5 5 7 11 12
9 9 11 10 11 10 10 9 10 11 9 9 8 8 7 7 8 5 6 6 5 5 5 6 4 5 5 6 6 5 5 5 5 5 5 5 5 5 5 4 3 3 4 4 5 4 4 4 4 3 3 2 3 4 3 3 3 5 6 5 5 5 6 2 2 2 2 1 2 2 3 3 3 3 4 4 4 5 5 5 4 5 5 8 11
9 10 11 11 12 12 10 11 10 9 9 9 9 9 9 8 7 9 8 6 6 7 6 7 6 5 6 6 7 4 5 5 5 5 6 5 4 4 5 5 3 4 3 5 5 4 3 2 1 2 2 4 3 2 0 2 3 4 3 3 4 3 5 2 2 2 3 2 2 2 2 3 3 3 4 4 4 4 4 4 5 5 6 5 7
11 10 13 13 13 11 12 12 9 10 11 11 10 9 9 8 7 7 6 6 7 7 7 7 9 7 7 7 6 6 7 6 6 6 6 5 5 5 5 5 5 5 6 4 3 3 2 2 2 2 3 3 3 1 0 0 2 3 6 5 2 1 2 1 2 4 7 3 2 2 2 2 3 3 3 4 4 4 4 4 4 5 5 6 6
12 13 13 12 12 11 13 12 11 11 11 11 10 10 9 9 9 7 8 6 7 8 9 8 8 9 9 8 6 10 9 7 6 6 6 7 6 6 7 5 5 4 4 4 4 4 3 4 4 3 2 2 2 1 1 2 1 3 2 3 5 6 2 2 1 3 2 3 2 3 3 3 5 4 4 4 5 6 4 4 4 5 6 6 6
12 12 12 13 11 11 12 12 11 11 10 11 11 11 10 10 9 8 8 8 5 5 4 4 5 6 7 7 6 5 7 8 8 7 6 6 7 7 5 5 5 5 6 5 4 4 3 3 3 4 3 2 2 1 1 1 1 1 4 2 3 2 5 2 9 8 3 3 3 1 1 3 5 5 3 5 6 6 6 4 5 4 5 5 5
14 14 13 13 11 15 15 14 12 12 11 11 12 9 7 7 5 3 4 3 2 3 4 4 6 6 6 6 6 7 7 7 6 7 8 8 7 5 5 5 4 4 4 4 3 4 4 5 6 4 5 3 3 2 1 2 2 1 2 1 2 1 1 4 7 7 6 10 11 7 4 5 6 6 5 6 6 5 5 6 6 5 5 5 5
12 12 12 14 14 13 13 12 11 11 12 12 12 10 10 10 9 8 7 6 7 6 8 9 5 5 6 6 7 7 6 5 6 6 6 6 5 5 5 4 5 4 5 5 4 3 4 4 4 4 4 4 3 3 2 3 3 3 3 2 2 2 4 1 2 4 6 7 5 7 9 8 6 10 10 8 9 8 6 5 5 6 5 6 5
14 12 12 14 14 12 12 13 13 12 12 12 12 11 11 10 13 12 11 10 9 7 6 7 8 8 6 6 6 5 6 6 7 7 5 5 5 5 6 5 5 5 5 4 3 3 3 3 2 3 3 3 3 3 3 2 3 4 3 3 3 3 2 3 2 4 6 3 4 6 7 7 9 10 10 10 9 9 9 7 8 8 7 5 5
15 13 14 12 13 14 13 14 12 12 11 12 13 13 13 12 12 12 11 11 11 10 9 9 8 7 7 7 5 5 6 6 6 5 5 5 5 5 5 5 5 4 4 4 4 4 4 4 4 4 4 3 3 3 3 2 1 2 2 3 4 3 3 1 2 2 3 6 4 2 3 5 8 6 8 9 9 7 8 9 8 8 7 7 7
11 13 13 12 12 13 13 12 12 12 11 13 13 13 13 13 12 11 11 10 10 8 7 5 7 6 8 5 5 5 5 5 5 5 5 5 5 5 4 4 6 6 6 6 6 6 6 7 6 5 5 5 4 4 4 2 3 3 2 3 2 3 3 2 5 5 1 3 5 3 5 5 5 4 3 4 5 6 7 8 6 6 6 5 5
11 9 8 8 9 9 11 12 13 11 11 12 13 13 14 12 12 12 13 10 8 5 7 7 7 6 8 7 5 5 4 4 4 5 5 6 6 7 6 6 6 5 5 6 7 6 5 6 5 5 5 7 5 5 5 4 4 4 4 2 2 2 3 2 3 3 1 2 4 6 6 8 8 4 6 2 5 8 7 6 6 5 5 5 7
7 8 8 9 9 10 11 12 13 10 11 12 13 14 13 13 13 13 14 13 11 9 8 8 7 7 7 7 7 6 5 5 4 5 7 8 7 6 5 5 5 5 6 6 6 6 5 6 6 7 6 7 5 6 6 5 5 5 5 3 2 2 2 1 2 2 2 2 4 5 6 4 7 9 0 3 8 8 6 5 4 4 4 5 6
Wind_Direction
193 209 246 316 350 124 123 123 118 112 110 109 106 108 104 104 100 95 91 88 86 83 83 84 81 79 79 81 79 78 83 85 79 75 69 68 69 72 73 73 71 71 72 73 72 73 80 82 80 76 75 73 71 69 69 70 70 68 66 63 61 60 60 57 54 50 48 44 43 49 54 57 59 58 58 62 64 62 58 52 46 52 50 48 47
166 206 269 321 339 128 125 121 117 112 110 108 108 106 106 103 100 97 93 87 84 82 85 88 86 86 84 81 78 77 79 80 79 76 73 72 72 75 75 76 76 75 73 71 71 73 75 78 79 75 71 70 72 71 71 71 69 69 68 66 65 63 61 60 57 55 52 50 48 39 46 53 53 55 57 57 58 59 57 54 48 46 51 52 51
109 126 294 334 356 128 124 119 110 112 109 109 109 107 106 107 102 97 93 90 87 85 84 88 94 89 86 88 86 86 83 79 79 79 78 76 73 75 78 79 79 78 76 75 77 78 77 78 77 75 73 71 70 71 70 70 70 69 68 67 67 65 62 60 57 53 50 48 44 40 41 52 53 54 56 58 58 55 49 52 52 51 53 53 55
114 137 323 355 101 126 119 119 113 103 104 106 107 104 99 98 97 95 94 95 93 94 97 90 81 81 82 79 82 82 82 81 82 84 80 81 81 79 78 82 84 82 78 75 76 76 78 82 81 79 77 75 74 73 72 72 72 71 69 69 67 64 63 60 57 53 50 47 42 37 43 49 56 58 59 58 59 57 53 57 56 54 55 53 51
123 125 12 71 108 133 118 109 109 108 103 106 105 105 105 103 103 103 103 96 95 93 89 88 91 90 82 78 77 82 85 87 82 80 83 83 82 80 78 78 83 83 79 75 74 77 77 80 80 80 79 77 75 74 74 73 73 71 71 69 67 64 61 58 55 52 48 45 37 43 48 49 52 60 65 63 61 58 57 56 56 56 53 53 55
138 96 71 85 106 119 106 115 114 111 109 107 109 108 104 103 99 99 101 99 95 93 93 97 92 90 96 99 95 78 76 73 75 82 83 77 80 86 89 88 86 84 81 77 73 76 77 79 81 82 80 80 79 77 76 74 73 73 72 70 67 64 61 58 54 51 45 38 37 48 47 48 51 58 61 61 61 61 59 55 53 51 54 55 50
101 77 89 90 93 102 109 113 114 112 112 111 106 107 107 102 99 96 99 105 104 95 88 96 99 97 86 83 95 95 88 88 88 84 82 82 80 77 80 90 91 85 81 78 75 73 77 80 79 81 84 82 80 77 75 74 74 74 72 70 68 67 63 58 53 47 38 38 51 49 53 47 48 56 55 53 49 48 45 46 42 45 45 36 34
78 72 74 78 81 93 108 106 110 112 112 113 111 107 112 110 103 97 92 94 96 97 104 94 83 90 100 95 83 85 90 88 86 83 80 79 84 85 82 76 80 83 83 81 77 75 76 79 82 81 80 82 80 77 75 73 72 71 71 70 69 64 61 56 50 45 36 45 40 44 45 46 47 57 52 49 50 47 46 39 34 39 28 25 40
78 51 72 75 83 107 107 111 119 121 120 114 114 117 113 107 105 103 101 98 95 105 100 101 103 96 89 91 90 87 91 88 86 87 88 86 80 80 85 92 96 91 82 81 80 74 71 75 77 77 77 77 79 78 76 75 74 73 72 73 70 66 62 56 50 37 45 43 34 36 37 48 47 58 57 51 48 46 40 35 37 32 31 28 58
67 47 59 67 105 109 107 116 128 132 122 114 111 108 102 100 106 111 107 101 97 93 102 100 99 98 103 98 95 94 89 90 93 94 95 94 92 85 81 85 85 85 83 81 80 78 76 77 81 80 79 79 80 80 79 79 77 76 76 75 72 70 63 56 47 42 39 34 35 26 29 14 36 45 46 50 57 49 45 28 24 22 35 2 52
80 62 51 68 108 109 107 97 92 103 117 115 112 107 103 101 100 109 110 105 108 114 101 98 100 101 96 97 100 98 97 94 96 95 91 88 88 86 84 85 76 78 83 82 78 77 78 77 77 79 80 82 82 83 82 81 80 79 79 75 71 65 62 52 41 47 38 33 32 24 17 5 9 37 54 53 49 51 63 51 38 31 33 25 39
101 73 61 72 113 113 104 108 115 125 128 117 111 107 104 105 104 104 109 111 114 113 107 110 107 97 102 99 101 103 98 98 88 82 87 81 83 93 90 82 82 82 87 85 81 77 76 78 83 82 81 81 82 83 82 80 79 79 78 73 66 61 51 43 40 40 32 29 32 15 10 11 12 42 71 55 51 44 37 34 37 31 29 29 30
120 91 62 69 106 114 113 116 123 127 126 115 110 107 106 111 114 115 118 117 110 109 110 113 109 107 101 96 98 100 104 98 98 95 87 90 82 78 82 87 86 83 84 86 83 83 82 79 77 81 83 83 83 81 80 79 78 78 74 71 64 59 54 40 42 36 31 22 27 13 5 0 344 14 36 35 30 34 33 26 24 25 24 21 27
125 104 74 86 100 103 101 102 109 125 121 113 109 108 110 114 122 125 129 115 113 115 107 112 111 109 105 104 106 109 106 103 95 88 91 94 98 98 91 89 86 83 80 79 78 79 80 82 83 83 86 84 81 78 74 74 74 72 69 63 61 53 39 47 36 32 27 18 15 10 5 348 347 29 19 30 39 41 39 35 34 29 26 23 21
127 113 92 81 99 110 104 101 107 117 111 108 110 112 114 114 119 135 139 117 113 111 125 127 109 114 114 115 111 108 104 100 97 95 92 96 98 89 84 87 85 81 80 78 75 75 77 79 78 79 78 76 72 68 64 63 63 63 60 57 54 48 36 42 34 33 21 8 8 11 2 349 343 42 35 38 30 26 31 28 39 28 19 18 5
128 118 102 80 81 91 103 97 101 108 106 107 109 109 109 113 118 90 92 116 122 116 117 126 96 95 106 106 109 113 111 106 104 99 93 80 74 85 87 82 82 83 82 80 76 71 74 75 76 76 77 76 72 67 63 57 54 51 49 53 49 41 35 16 38 28 16 9 359 359 3 352 342 22 16 30 35 37 23 16 23 26 17 11 7
130 124 111 91 87 90 94 77 93 98 94 96 97 105 104 82 87 92 89 88 90 89 79 91 102 100 95 93 86 78 97 109 105 103 97 92 85 78 80 80 79 79 79 77 72 66 67 70 71 71 71 70 69 65 60 57 52 47 45 47 45 37 32 9 26 20 11 11 358 348 351 355 335 336 8 9 38 28 20 20 20 15 6 8 7
135 129 119 112 102 107 110 108 95 85 85 83 85 104 107 93 93 87 80 83 84 85 87 92 92 88 89 86 83 88 85 86 88 91 91 85 79 77 72 73 77 78 78 74 74 70 69 67 63 63 61 60 60 61 57 53 50 49 48 43 40 36 31 13 13 4 4 359 353 340 343 339 323 305 340 15 17 16 14 6 18 14 4 359 357
138 135 128 117 119 116 116 112 106 102 90 77 83 101 107 104 101 97 93 90 84 84 88 97 98 85 80 78 79 81 77 75 77 76 78 75 67 60 59 65 77 76 76 76 72 71 65 62 61 57 51 48 50 52 52 50 47 43 42 44 39 33 34 11 10 354 348 349 346 341 339 328 334 354 357 28 350 349 1 341 0 354 352 346 303
157 147 144 140 129 131 128 128 126 125 120 114 111 114 114 114 112 106 105 101 97 91 92 94 94 96 90 87 84 83 76 71 71 72 68 68 65 64 60 58 66 66 66 66 64 62 57 56 58 57 49 44 46 52 51 48 45 41 38 35 33 22 23 4 355 351 338 342 340 335 330 331 339 345 342 3 1 335 179 345 319 330 333 320 302
168 166 165 159 153 146 145 142 146 143 135 129 126 126 123 121 118 118 113 109 106 104 101 100 98 92 99 96 93 89 91 88 69 75 70 61 57 61 60 60 56 47 53 56 57 52 47 50 51 52 44 41 42 52 49 47 41 36 30 32 24 27 12 351 341 330 330 328 335 326 328 329 332 330 344 343 336 325 340 252 280 303 296 293 288
174 169 181 169 168 169 160 155 155 152 149 142 141 143 136 125 131 130 125 114 111 114 107 108 97 101 95 95 96 96 93 91 88 75 74 62 56 44 54 54 50 43 43 44 43 40 40 41 33 37 34 33 34 37 27 33 38 29 24 15 27 16 10 359 347 334 325 324 321 318 322 325 325 326 326 331 328 345 338 233 270 279 295 291 292
182 182 191 186 188 177 173 169 163 161 150 145 147 151 152 142 145 144 133 121 118 110 115 107 96 98 94 95 100 101 98 90 79 84 83 69 62 44 50 57 57 49 49 54 49 42 40 40 36 31 27 31 35 31 27 18 6 5 8 20 23 19 1 2 358 341 328 323 304 306 312 315 317 318 320 321 327 337 337 307 289 295 299 302 305
183 187 189 191 190 189 188 179 173 163 158 154 152 159 162 158 154 152 149 144 126 108 107 115 121 109 112 106 106 106 106 101 87 77 80 74 64 57 56 57 56 54 40 55 48 40 30 31 30 26 30 28 29 25 20 6 5 359 4 9 9 8 360 355 343 337 319 314 303 308 305 307 310 308 312 319 321 326 327 321 322 313 311 306 301
193 182 183 193 193 192 190 190 179 174 169 162 162 166 169 167 164 161 157 154 144 132 126 121 129 127 121 113 113 108 108 108 102 92 92 95 83 62 57 56 45 46 29 44 31 23 24 19 13 25 33 23 15 19 6 355 357 354 0 358 355 349 344 342 336 324 316 313 309 309 296 302 305 306 307 312 314 316 317 317 317 318 316 307 310
179 189 197 193 196 194 194 191 187 182 186 175 169 165 170 174 175 170 164 160 160 146 142 140 136 137 139 130 120 104 95 105 112 112 107 121 105 81 71 72 71 52 32 41 29 24 25 18 22 21 21 14 1 357 3 353 337 340 340 344 340 337 332 326 324 309 307 307 304 307 294 296 298 304 307 308 307 306 309 312 313 314 312 312 312
191 202 195 195 197 200 198 197 196 191 191 180 173 167 189 188 183 176 171 177 169 167 163 159 155 149 148 149 141 133 120 125 116 134 134 139 146 151 150 94 87 88 42 39 30 25 21 22 14 10 333 331 319 303 327 328 305 323 318 311 328 318 318 315 303 301 299 298 300 298 293 292 298 300 301 302 305 306 307 308 310 310 310 310 312
189 200 195 195 194 198 196 198 202 196 193 185 180 186 189 193 194 174 193 185 173 190 190 182 163 163 164 162 141 142 148 141 143 156 153 156 156 157 177 166 145 151 142 114 280 284 275 313 313 309 305 281 269 300 285 276 283 274 288 290 298 312 308 299 296 292 301 305 301 300 293 288 288 291 298 301 306 306 308 308 308 310 311 311 311
199 198 193 198 197 193 192 198 202 200 197 189 194 194 192 195 192 195 196 180 193 196 197 178 178 169 177 171 161 152 148 154 171 173 187 201 140 185 179 215 206 216 201 229 228 237 238 247 270 281 285 290 282 311 321 311 300 280 306 312 331 315 301 304 302 307 301 299 300 295 294 286 291 296 298 301 302 305 307 309 310 311 311 311 313
205 188 186 201 197 193 195 197 197 198 195 193 198 196 196 197 198 202 198 182 200 198 179 187 188 174 182 186 191 172 176 181 176 182 197 222 211 213 233 236 239 215 213 240 221 235 265 237 237 265 295 303 304 313 332 310 310 300 310 304 300 287 291 299 305 302 304 297 291 295 294 291 293 296 300 300 302 305 309 311 313 314 314 314 314
199 198 190 194 187 192 202 201 198 196 192 192 195 197 197 200 201 200 201 202 195 182 188 191 187 194 195 189 195 193 170 184 194 184 210 214 204 226 236 234 253 222 228 251 222 233 228 259 274 290 291 303 294 295 261 292 288 301 294 281 286 284 286 289 279 292 294 298 301 295 298 296 295 299 302 303 304 306 309 313 315 316 315 315 317
197 206 198 173 173 194 200 202 198 195 194 197 193 197 198 199 198 198 203 204 196 195 192 191 195 200 192 194 195 196 190 188 190 189 200 202 213 225 249 243 255 251 223 237 241 228 243 250 244 239 251 263 280 272 228 258 287 286 312 299 306 293 293 290 303 301 297 299 299 298 302 310 306 298 297 300 303 308 312 315 317 317 318 321 324
206 208 202 186 194 192 195 199 196 191 196 198 197 200 199 198 197 200 201 201 200 200 200 198 199 196 193 197 198 194 196 193 198 191 185 198 207 216 230 241 235 221 217 225 239 243 245 243 229 213 205 217 266 281 253 240 274 292 298 292 296 289 288 301 300 298 300 302 303 306 306 309 306 302 290 291 301 308 313 315 317 319 323 325 326
201 205 194 202 203 197 190 189 191 192 197 200 197 198 203 203 200 203 202 200 204 202 207 201 194 183 195 196 196 197 195 197 183 184 179 178 193 217 232 238 213 211 204 197 216 210 243 247 248 234 247 249 264 281 301 294 281 279 275 283 276 287 306 300 291 295 299 299 304 305 307 308 308 309 312 306 301 306 313 318 320 323 324 324 325
204 207 206 206 201 202 189 194 191 197 192 198 197 201 202 203 201 204 204 200 201 204 205 201 199 189 180 194 198 197 198 188 187 182 183 189 184 193 216 239 208 192 198 198 215 211 203 239 247 265 277 264 264 268 267 271 290 299 295 291 295 309 296 282 289 289 299 306 303 302 305 309 310 311 315 319 320 317 319 319 323 323 323 326 326
207 208 208 209 212 207 194 199 191 199 197 195 198 199 200 203 199 198 200 201 199 204 202 202 197 182 185 187 190 197 190 190 184 188 195 198 213 217 197 180 195 191 207 201 204 227 222 241 225 221 262 265 262 274 223 269 282 280 283 293 298 303 297 290 288 295 319 311 305 307 314 313 316 319 319 319 323 324 322 324 326 325 326 325 325
207 204 202 206 214 209 200 202 198 196 200 198 197 199 198 200 203 198 201 198 203 206 206 198 190 191 186 191 188 191 193 189 189 187 200 200 204 212 239 199 158 180 191 188 216 229 222 233 244 208 228 275 283 281 275 255 284 277 287 297 295 298 288 293 296 321 325 300 308 312 314 318 315 314 322 327 328 325 331 333 329 327 322 322 325
207 206 204 206 209 208 206 203 202 197 199 198 197 197 200 200 203 205 199 203 212 212 203 190 199 198 188 197 189 190 194 196 192 191 201 204 203 208 200 219 191 187 187 173 216 162 214 233 268 217 212 230 263 274 299 303 279 294 300 300 302 289 285 288 308 339 311 310 312 322 333 319 319 328 329 332 329 334 328 332 330 321 322 326 332
205 205 202 204 202 205 206 206 203 200 198 198 198 201 201 205 208 203 201 209 216 219 204 205 208 199 198 191 179 190 192 195 194 190 205 209 209 207 206 217 223 197 166 183 207 184 188 213 246 246 181 222 258 267 271 287 296 297 286 290 287 281 286 287 338 310 294 291 306 318 317 321 324 333 338 338 340 338 334 333 336 335 336 336 336
201 200 201 199 203 202 201 206 208 202 197 193 185 194 196 201 204 197 207 207 209 210 209 211 193 203 200 180 179 187 187 190 191 188 197 200 207 211 213 197 202 191 185 185 211 198 211 210 228 243 275 259 211 252 248 263 269 256 274 278 263 283 281 306 347 323 294 323 329 324 329 323 334 339 348 343 338 336 331 332 332 331 330 334 334
205 201 201 204 205 205 192 208 203 196 192 186 187 190 196 201 207 205 207 191 201 210 212 210 203 203 188 194 166 179 179 178 180 181 199 200 205 204 212 219 187 189 172 211 214 208 195 193 189 174 245 310 303 196 259 206 275 300 219 253 289 261 272 20 316 326 344 345 331 328 334 329 340 342 347 336 329 330 328 332 330 330 332 332 332
212 202 207 206 206 201 203 208 192 198 199 194 191 195 195 194 192 197 183 183 193 204 214 208 208 202 190 194 178 166 175 183 181 184 184 185 197 201 203 210 187 193 203 208 218 224 197 192 208 255 194 212 269 329 104 284 347 354 327 331 211 276 307 35 321 10 343 339 335 321 333 331 329 334 336 329 322 323 329 334 333 330 332 332 332
210 209 212 207 204 203 211 207 199 197 201 197 194 201 198 197 195 191 188 197 207 205 208 204 202 202 200 193 208 178 180 183 182 186 186 186 194 196 209 206 203 193 201 210 213 232 219 224 202 207 228 186 241 337 346 180 295 313 289 320 353 353 343 11 316 318 321 343 359 351 353 346 333 339 343 326 333 332 335 342 331 332 332 335 335
216 216 212 211 207 210 210 205 202 198 199 199 200 200 194 193 198 191 196 191 187 196 194 163 187 191 198 199 212 217 196 193 192 178 189 193 195 203 202 202 206 192 203 209 213 228 218 210 176 191 190 211 185 137 30 165 181 14 2 356 315 358 332 8 344 335 14 314 346 39 36 347 325 328 334 337 337 333 333 353 337 335 334 332 333
213 212 208 208 209 211 208 202 200 200 200 197 198 188 168 170 152 93 129 109 75 167 165 188 191 188 187 185 202 196 201 202 191 184 184 197 201 200 188 194 199 202 198 218 222 228 215 200 187 176 176 171 174 178 103 81 67 347 113 351 341 342 283 323 350 306 1 344 334 344 4 351 348 338 342 340 336 335 336 348 343 337 340 340 340
220 216 210 213 212 213 205 201 201 200 200 197 190 180 183 177 170 171 170 187 197 171 193 183 161 168 187 197 200 194 188 195 189 203 214 196 190 186 172 185 202 197 198 205 206 208 203 187 191 193 180 184 159 179 119 43 76 99 69 74 244 290 309 335 332 297 333 308 306 334 335 344 358 348 339 337 340 335 340 352 339 332 342 346 345
220 209 211 215 214 213 206 201 200 201 196 191 184 183 187 188 185 187 190 193 200 206 188 179 179 191 191 196 201 198 196 196 208 209 203 175 181 195 193 196 192 196 199 192 156 181 175 157 129 137 153 154 139 134 123 119 99 63 69 71 61 60 80 12 309 309 314 328 301 315 320 339 358 344 331 332 335 336 331 343 339 339 339 346 344
211 203 212 210 207 209 205 204 203 199 194 187 186 187 188 189 192 196 197 201 203 201 182 187 185 175 174 182 179 198 203 208 205 197 191 186 185 199 192 172 155 160 136 150 142 127 117 92 98 98 106 116 136 120 123 120 146 100 72 69 53 61 50 265 279 270 277 297 293 272 265 355 333 329 317 323 325 325 324 329 331 333 335 339 344
210 208 210 204 206 208 209 205 204 199 195 189 188 190 191 189 192 194 200 208 203 197 170 157 162 170 159 162 179 187 194 198 196 182 167 170 163 155 129 134 137 126 127 124 127 124 123 124 120 119 118 99 84 105 113 113 98 98 130 86 95 24 353 69 75 33 280 269 285 303 311 316 300 298 304 301 309 310 313 310 313 320 321 328 348
216 215 212 204 207 206 209 205 208 200 194 191 190 191 193 190 194 196 200 199 192 154 154 159 174 173 173 175 173 174 169 140 174 167 152 150 144 129 133 134 118 128 121 123 119 112 124 120 116 110 114 105 85 92 103 111 100 81 64 52 30 29 89 73 50 9 295 244 287 305 324 332 331 319 311 304 313 306 307 305 316 321 326 335 13
212 207 206 202 200 200 204 208 211 200 194 192 189 194 194 194 197 196 198 196 187 156 158 164 157 169 164 160 167 166 152 150 155 149 144 141 126 116 130 125 122 121 120 123 123 126 119 105 104 103 96 107 113 107 92 84 88 76 63 64 83 67 78 81 6 20 22 329 317 299 320 326 307 311 230 329 311 299 296 300 302 310 321 11 25